Weather History for Marion, IN

Change the Weather History Date:

Sunday, May 12, 2013

  Actual Average (KMIE) Record (KMIE)
Temperature  
Mean Temperature 44 °F 60 °F  
Max Temperature 52 °F 71 °F 86 °F (1987)
Min Temperature 36 °F 50 °F 33 °F (1976)
Degree Days  
Heating Degree Days 21 6  
Month to date heating degree days 89  
Since 1 July heating degree days 5681  
Cooling Degree Days 0 2  
Month to date cooling degree days 14  
Year to date cooling degree days 29  
Moisture  
Dew Point 30 °F    
Average Humidity 61    
Maximum Humidity 87    
Minimum Humidity 32    
Precipitation  
Precipitation 0.00 in 0.14 in 2.50 in (2002)
Month to date precipitation 1.53  
Year to date precipitation 12.69  
Sea Level Pressure  
Sea Level Pressure 30.07 in    
Wind  
Wind Speed 9 mph (WNW)    
Max Wind Speed 18 mph    
Max Gust Speed 30 mph    
Visibility 8 miles    
Events Snow    
T = Trace of Precipitation, MM = Missing Value Source: NWS Daily Summary

Daily Weather History Graph

Daily Weather History Graph

Search for Another Location

Airport:

Trip Planner

Search our weather history database for the weather conditions in past years. The results will help you decide how hot, cold, wet, or windy it might be!

Date:

Astronomy

May. 12, 2013 Rise Set
Actual Time 6:28 AM EDT 8:49 PM EDT
Civil Twilight 5:58 AM EDT 9:20 PM EDT
Nautical Twilight 5:20 AM EDT 9:58 PM EDT
Astronomical Twilight 4:38 AM EDT 10:40 PM EDT
Moon 8:23 AM EDT (5/12) 11:16 PM EDT (5/12)
Length of Visible Light 15h 22m
Length of Day
14h 20m
Waxing Crescent, 6% of the Moon is Illuminated
May 12
Waxing Crescent
May 18
First Quarter
May 25
Full
May 31
Last Quarter
Jun 8
New

Hourly Weather History & Observations

Time (EDT) Temp. Windchill Dew Point Humidity Pressure Visibility Wind Dir Wind Speed Gust Speed Precip Events Conditions
12:15 AM 41.7 °F 39.8 °F 34.7 °F 76% 30.02 in 10.0 mi West 3.5 mph - N/A   Clear
12:35 AM 40.5 °F 37.3 °F 35.4 °F 82% 30.02 in 10.0 mi West 4.6 mph - N/A   Clear
12:55 AM 39.7 °F 35.6 °F 35.6 °F 85% 30.02 in 7.0 mi West 5.8 mph - N/A   Clear
1:15 AM 39.6 °F 35.4 °F 35.4 °F 85% 30.02 in 7.0 mi West 5.8 mph - N/A   Clear
1:35 AM 39.2 °F 35.0 °F 34.9 °F 84% 30.02 in 10.0 mi West 5.8 mph - N/A   Clear
1:55 AM 39.0 °F 36.8 °F 34.7 °F 84% 30.03 in 10.0 mi West 3.5 mph - N/A   Clear
2:15 AM 38.3 °F 33.9 °F 34.7 °F 87% 30.02 in 10.0 mi West 5.8 mph - N/A   Clear
2:35 AM 38.3 °F 33.9 °F 34.3 °F 86% 30.03 in 10.0 mi West 5.8 mph - N/A   Clear
2:55 AM 37.9 °F 32.7 °F 34.2 °F 86% 30.03 in 10.0 mi West 6.9 mph - N/A   Clear
3:15 AM 37.8 °F 34.2 °F 34.0 °F 86% 30.03 in 7.0 mi West 4.6 mph - N/A   Clear
3:35 AM 37.6 °F 33.1 °F 33.8 °F 86% 30.02 in 7.0 mi West 5.8 mph - N/A   Clear
3:55 AM 38.1 °F 31.7 °F 33.6 °F 84% 30.02 in 5.0 mi West 9.2 mph - N/A Snow Light Snow
4:15 AM 38.1 °F 32.3 °F 33.3 °F 83% 30.02 in 7.0 mi West 8.1 mph - N/A Snow Light Snow
4:35 AM 37.8 °F 32.5 °F 32.9 °F 83% 30.02 in 10.0 mi West 6.9 mph - N/A   Clear
4:55 AM 38.1 °F 32.3 °F 32.5 °F 80% 30.02 in 10.0 mi WNW 8.1 mph - N/A   Clear
5:35 AM 37.6 °F 32.3 °F 32.0 °F 80% 30.02 in 7.0 mi WNW 6.9 mph - N/A   Clear
5:55 AM 37.0 °F 31.6 °F 32.0 °F 82% 30.02 in 10.0 mi West 6.9 mph - N/A   Clear
6:15 AM 36.1 °F 29.3 °F 32.0 °F 85% 30.03 in 7.0 mi West 9.2 mph - N/A   Clear
6:35 AM 36.0 °F 29.6 °F 32.0 °F 86% 30.03 in 10.0 mi West 8.1 mph - N/A   Clear
6:55 AM 36.0 °F 29.6 °F 32.0 °F 86% 30.04 in 7.0 mi West 8.1 mph - N/A Snow Light Snow
7:15 AM 36.7 °F 30.5 °F 32.0 °F 83% 30.04 in 4.0 mi West 8.1 mph - N/A   Haze
7:35 AM 38.1 °F 31.2 °F 32.2 °F 79% 30.04 in 10.0 mi West 10.4 mph - N/A   Mostly Cloudy
7:55 AM 38.7 °F 31.8 °F 32.0 °F 77% 30.05 in 5.0 mi WNW 10.4 mph - N/A   Haze
8:15 AM 39.7 °F 32.7 °F 32.0 °F 74% 30.05 in 4.0 mi WNW 11.5 mph - N/A   Haze
8:35 AM 40.8 °F 34.5 °F 32.2 °F 71% 30.05 in 5.0 mi WNW 10.4 mph - N/A   Haze
8:55 AM 41.9 °F 36.3 °F 32.5 °F 69% 30.06 in 7.0 mi NW 9.2 mph - N/A   Clear
9:15 AM 42.4 °F 36.1 °F 32.4 °F 68% 30.06 in 7.0 mi NW 11.5 mph - N/A   Clear
9:35 AM 43.2 °F 36.2 °F 32.7 °F 67% 30.07 in 10.0 mi WNW 13.8 mph 19.6 mph N/A   Scattered Clouds
9:55 AM 43.9 °F 37.9 °F 32.4 °F 64% 30.07 in 10.0 mi NNW 11.5 mph 17.3 mph N/A   Scattered Clouds
10:15 AM 44.2 °F 37.3 °F 31.1 °F 60% 30.08 in 7.0 mi NW 15.0 mph 24.2 mph N/A   Scattered Clouds
10:35 AM 45.0 °F 37.6 °F 30.6 °F 57% 30.07 in 7.0 mi NW 17.3 mph 24.2 mph N/A   Scattered Clouds
10:55 AM 45.5 °F 38.1 °F 30.0 °F 55% 30.08 in 7.0 mi WNW 18.4 mph 24.2 mph N/A   Mostly Cloudy
11:15 AM 45.3 °F 37.8 °F 30.0 °F 55% 30.08 in 10.0 mi WNW 18.4 mph 29.9 mph N/A   Mostly Cloudy
11:35 AM 45.7 °F 38.6 °F 30.6 °F 56% 30.09 in 7.0 mi NW 17.3 mph 27.6 mph N/A   Mostly Cloudy
11:55 AM 45.7 °F 38.8 °F 29.8 °F 54% 30.09 in 5.0 mi WNW 16.1 mph 23.0 mph N/A   Haze
12:15 PM 45.5 °F 38.3 °F 29.3 °F 53% 30.09 in 7.0 mi WNW 17.3 mph 24.2 mph N/A   Overcast
12:35 PM 46.6 °F - 29.3 °F 51% 30.10 in 7.0 mi WNW 17.3 mph 26.5 mph N/A   Mostly Cloudy
12:55 PM 46.8 °F - 30.0 °F 52% 30.10 in 10.0 mi NW 15.0 mph 21.9 mph N/A   Overcast
1:15 PM 47.1 °F - 30.4 °F 52% 30.10 in 7.0 mi NW 17.3 mph 21.9 mph N/A   Overcast
1:35 PM 48.2 °F - 30.4 °F 50% 30.10 in 10.0 mi WNW 13.8 mph 21.9 mph N/A   Mostly Cloudy
1:55 PM 48.7 °F - 29.3 °F 47% 30.11 in 7.0 mi WNW 17.3 mph 24.2 mph N/A   Overcast
2:15 PM 49.5 °F - 28.6 °F 45% 30.10 in 10.0 mi WNW 18.4 mph 25.3 mph N/A   Overcast
2:35 PM 49.5 °F - 27.5 °F 43% 30.11 in 10.0 mi NW 17.3 mph 24.2 mph N/A   Overcast
2:55 PM 48.9 °F - 27.7 °F 44% 30.11 in 7.0 mi NW 15.0 mph 21.9 mph N/A   Overcast
3:15 PM 49.5 °F - 27.1 °F 42% 30.10 in 7.0 mi NW 13.8 mph 19.6 mph N/A   Overcast
3:35 PM 49.8 °F - 27.3 °F 42% 30.10 in 7.0 mi NW 11.5 mph 16.1 mph N/A   Mostly Cloudy
3:55 PM 50.4 °F - 27.7 °F 42% 30.10 in 7.0 mi NW 15.0 mph 21.9 mph N/A   Mostly Cloudy
4:15 PM 51.6 °F - 27.1 °F 39% 30.09 in 10.0 mi West 16.1 mph 21.9 mph N/A   Mostly Cloudy
4:35 PM 51.8 °F - 26.2 °F 37% 30.09 in 10.0 mi WNW 15.0 mph 21.9 mph N/A   Mostly Cloudy
4:55 PM 51.4 °F - 25.9 °F 37% 30.09 in 10.0 mi WNW 16.1 mph 21.9 mph N/A   Mostly Cloudy
5:15 PM 51.1 °F - 25.9 °F 38% 30.08 in 7.0 mi NW 16.1 mph 21.9 mph N/A   Overcast
5:35 PM 51.6 °F - 25.7 °F 37% 30.08 in 10.0 mi NW 11.5 mph - N/A   Overcast
5:55 PM 52.0 °F - 26.4 °F 37% 30.08 in 7.0 mi NW 16.1 mph 25.3 mph N/A   Mostly Cloudy
6:15 PM 51.6 °F - 24.8 °F 35% 30.08 in 7.0 mi WNW 13.8 mph 19.6 mph N/A   Mostly Cloudy
6:35 PM 52.3 °F - 23.0 °F 32% 30.08 in 7.0 mi WNW 16.1 mph 23.0 mph N/A   Mostly Cloudy
6:55 PM 52.2 °F - 23.9 °F 33% 30.08 in 10.0 mi NW 13.8 mph 20.7 mph N/A   Scattered Clouds
7:15 PM 51.4 °F - 24.3 °F 35% 30.07 in 10.0 mi NW 13.8 mph 18.4 mph N/A   Scattered Clouds
7:35 PM 51.4 °F - 24.1 °F 34% 30.07 in 7.0 mi WNW 15.0 mph 21.9 mph N/A   Scattered Clouds
7:55 PM 51.4 °F - 24.1 °F 34% 30.07 in 10.0 mi NW 11.5 mph 17.3 mph N/A   Clear
8:15 PM 50.5 °F - 25.2 °F 37% 30.07 in 5.0 mi WNW 10.4 mph - N/A   Haze
8:35 PM 49.6 °F - 25.3 °F 39% 30.08 in 5.0 mi NW 4.6 mph - N/A   Haze
8:55 PM 48.4 °F - 27.9 °F 45% 30.08 in 7.0 mi NW 3.5 mph - N/A   Scattered Clouds
9:15 PM 47.1 °F - 29.7 °F 51% 30.08 in 10.0 mi Calm Calm - N/A   Scattered Clouds
9:35 PM 47.1 °F - 27.5 °F 47% 30.09 in 7.0 mi Calm Calm - N/A   Mostly Cloudy
9:55 PM 46.4 °F 45.2 °F 28.6 °F 50% 30.11 in 7.0 mi North 3.5 mph - N/A   Overcast
10:15 PM 44.4 °F 42.9 °F 32.0 °F 62% 30.12 in 5.0 mi NNE 3.5 mph - N/A   Haze
10:35 PM 43.9 °F 42.3 °F 32.9 °F 65% 30.13 in 7.0 mi NNE 3.5 mph - N/A   Overcast
10:55 PM 43.9 °F 42.3 °F 32.2 °F 63% 30.13 in 7.0 mi NNE 3.5 mph - N/A   Scattered Clouds
11:15 PM 42.8 °F 41.1 °F 32.0 °F 66% 30.13 in 7.0 mi NNE 3.5 mph - N/A   Clear
11:35 PM 42.1 °F 39.2 °F 31.3 °F 66% 30.13 in 7.0 mi NE 4.6 mph - N/A   Clear
11:55 PM 40.6 °F 38.6 °F 31.6 °F 70% 30.13 in 7.0 mi ENE 3.5 mph - N/A   Clear